When you browse on this site, cookies collect data to enhance your experience and personalize the content and advertising you see.
Visit our Privacy Policy to learn more. By continuing to use the site, you agree to this use of cookies and data.
  • In Hungary
  • List of Countries
  • For 7 days
  • Water Temperature
  • Satellite Maps
  • Weather Map
  • News
  • Weather Widgets
  • user-avatar
    Login

    Hourly Weather Upryshkino

    Today, 23 May, Thursday

    Time Temperature Precipitation Wind Pressure Humidity
    00:00 +13°C° 0 mm 1 mps 735 mmHg 93%
    01:00 +13°C° 0 mm 1 mps 735 mmHg 94%
    02:00 +13°C° 0 mm 2 mps 735 mmHg 94%
    03:00 +13°C° 0 mm 2 mps 734 mmHg 93%
    04:00 +13°C° 0 mm 2 mps 734 mmHg 93%
    05:00 +14°C° 0 mm 2 mps 734 mmHg 92%
    06:00 +16°C° 0 mm 2 mps 734 mmHg 86%
    07:00 +18°C° 0 mm 2 mps 734 mmHg 81%
    08:00 +19°C° 0 mm 2 mps 734 mmHg 75%
    09:00 +20°C° 0.4 mm 2 mps 734 mmHg 71%
    10:00 +21°C° 0.4 mm 2 mps 734 mmHg 68%
    11:00 +22°C° 0.4 mm 3 mps 734 mmHg 65%
    12:00 +22°C° 0.6 mm 3 mps 734 mmHg 68%
    13:00 +21°C° 0.6 mm 3 mps 734 mmHg 72%
    14:00 +21°C° 0.6 mm 3 mps 734 mmHg 75%
    15:00 +20°C° 0.4 mm 3 mps 734 mmHg 78%
    16:00 +19°C° 0.4 mm 4 mps 735 mmHg 81%
    17:00 +17°C° 0.4 mm 4 mps 735 mmHg 84%
    18:00 +15°C° 0 mm 4 mps 735 mmHg 85%
    19:00 +13°C° 0 mm 3 mps 736 mmHg 86%
    20:00 +12°C° 0 mm 3 mps 736 mmHg 87%
    21:00 +10°C° 0 mm 3 mps 737 mmHg 88%
    22:00 +9°C° 0 mm 3 mps 737 mmHg 90%
    23:00 +8°C° 0 mm 2 mps 737 mmHg 92%

    Tomorrow, 24 May, Friday

    Time Temperature Precipitation Wind Pressure Humidity
    00:00 +7°C° 0 mm 2 mps 738 mmHg 93%
    01:00 +6°C° 0 mm 2 mps 738 mmHg 93%
    02:00 +5°C° 0 mm 2 mps 738 mmHg 94%
    03:00 +6°C° 0 mm 2 mps 739 mmHg 91%
    04:00 +6°C° 0 mm 2 mps 739 mmHg 88%
    05:00 +5°C° 0 mm 3 mps 739 mmHg 85%
    06:00 +8°C° 0 mm 3 mps 740 mmHg 77%
    07:00 +9°C° 0 mm 3 mps 740 mmHg 69%
    08:00 +11°C° 0 mm 3 mps 740 mmHg 62%
    09:00 +12°C° 0 mm 3 mps 740 mmHg 57%
    10:00 +14°C° 0 mm 3 mps 740 mmHg 52%
    11:00 +16°C° 0 mm 3 mps 740 mmHg 48%
    12:00 +17°C° 0 mm 3 mps 740 mmHg 47%
    13:00 +17°C° 0 mm 3 mps 740 mmHg 46%
    14:00 +18°C° 0 mm 3 mps 739 mmHg 45%
    15:00 +18°C° 0 mm 3 mps 739 mmHg 48%
    16:00 +18°C° 0 mm 3 mps 739 mmHg 50%
    17:00 +18°C° 0 mm 3 mps 739 mmHg 53%
    18:00 +16°C° 0 mm 3 mps 739 mmHg 61%
    19:00 +14°C° 0 mm 2 mps 738 mmHg 69%
    20:00 +13°C° 0 mm 2 mps 738 mmHg 78%
    21:00 +12°C° 0 mm 2 mps 738 mmHg 79%
    22:00 +12°C° 0 mm 2 mps 738 mmHg 80%
    23:00 +10°C° 0 mm 3 mps 738 mmHg 81%

    Day after tomorrow, 25 May, Saturday

    Time Temperature Precipitation Wind Pressure Humidity
    00:00 +10°C° 0 mm 3 mps 738 mmHg 85%
    01:00 +10°C° 0 mm 2 mps 737 mmHg 90%
    02:00 +10°C° 0 mm 2 mps 737 mmHg 94%
    03:00 +10°C° 0.1 mm 2 mps 737 mmHg 94%
    04:00 +11°C° 0.1 mm 3 mps 736 mmHg 93%
    05:00 +11°C° 0.1 mm 3 mps 736 mmHg 93%
    06:00 +12°C° 0.4 mm 3 mps 736 mmHg 93%
    07:00 +12°C° 0.4 mm 3 mps 736 mmHg 93%
    08:00 +13°C° 0.4 mm 3 mps 736 mmHg 93%
    09:00 +14°C° 0.4 mm 3 mps 735 mmHg 91%
    10:00 +14°C° 0.4 mm 3 mps 735 mmHg 88%
    11:00 +16°C° 0.4 mm 3 mps 735 mmHg 86%
    12:00 +17°C° 0.2 mm 3 mps 735 mmHg 85%
    13:00 +18°C° 0.2 mm 3 mps 734 mmHg 84%
    14:00 +18°C° 0.2 mm 3 mps 734 mmHg 83%
    15:00 +18°C° 0.3 mm 3 mps 733 mmHg 84%
    16:00 +18°C° 0.3 mm 3 mps 733 mmHg 85%
    17:00 +18°C° 0.3 mm 2 mps 732 mmHg 86%
    18:00 +17°C° 0.3 mm 2 mps 732 mmHg 89%
    19:00 +17°C° 0.3 mm 2 mps 732 mmHg 91%
    20:00 +16°C° 0.3 mm 2 mps 731 mmHg 94%
    21:00 +15°C° 0.2 mm 2 mps 731 mmHg 95%
    22:00 +14°C° 0.2 mm 2 mps 731 mmHg 95%
    23:00 +13°C° 0.2 mm 2 mps 731 mmHg 96%

    26 May, Sunday

    Time Temperature Precipitation Wind Pressure Humidity
    00:00 +12°C° 0 mm 2 mps 731 mmHg 96%
    01:00 +12°C° 0 mm 2 mps 731 mmHg 97%
    02:00 +10°C° 0 mm 2 mps 731 mmHg 97%
    03:00 +10°C° 0 mm 2 mps 731 mmHg 96%
    04:00 +10°C° 0 mm 2 mps 731 mmHg 95%
    05:00 +10°C° 0 mm 2 mps 732 mmHg 95%
    06:00 +11°C° 0 mm 3 mps 732 mmHg 87%
    07:00 +12°C° 0 mm 3 mps 732 mmHg 79%
    08:00 +13°C° 0 mm 3 mps 732 mmHg 71%
    09:00 +14°C° 0 mm 3 mps 732 mmHg 65%
    10:00 +16°C° 0 mm 3 mps 732 mmHg 59%
    11:00 +18°C° 0 mm 3 mps 733 mmHg 53%
    12:00 +18°C° 0 mm 3 mps 732 mmHg 51%
    13:00 +19°C° 0 mm 3 mps 732 mmHg 49%
    14:00 +19°C° 0 mm 3 mps 732 mmHg 47%
    15:00 +19°C° 0 mm 2 mps 732 mmHg 50%
    16:00 +19°C° 0 mm 2 mps 732 mmHg 53%
    17:00 +19°C° 0 mm 2 mps 732 mmHg 55%
    18:00 +17°C° 0 mm 2 mps 732 mmHg 62%
    19:00 +15°C° 0 mm 1 mps 732 mmHg 69%
    20:00 +14°C° 0 mm 1 mps 731 mmHg 76%
    21:00 +13°C° 0 mm 1 mps 731 mmHg 78%
    22:00 +12°C° 0 mm 2 mps 731 mmHg 81%
    23:00 +10°C° 0 mm 2 mps 730 mmHg 83%

    27 May, Monday

    Time Temperature Precipitation Wind Pressure Humidity
    00:00 +10°C° 0.4 mm 3 mps 730 mmHg 87%
    01:00 +10°C° 0.4 mm 3 mps 730 mmHg 90%
    02:00 +10°C° 0.4 mm 4 mps 730 mmHg 94%
    03:00 +10°C° 0.5 mm 4 mps 730 mmHg 93%
    04:00 +10°C° 0.5 mm 4 mps 730 mmHg 92%
    05:00 +8°C° 0.5 mm 4 mps 730 mmHg 91%
    06:00 +9°C° 0.1 mm 5 mps 730 mmHg 86%
    07:00 +9°C° 0.1 mm 5 mps 731 mmHg 81%
    08:00 +9°C° 0.1 mm 6 mps 731 mmHg 75%
    09:00 +10°C° 0.2 mm 6 mps 732 mmHg 71%
    10:00 +11°C° 0.2 mm 6 mps 732 mmHg 66%
    11:00 +11°C° 0.2 mm 6 mps 733 mmHg 61%
    12:00 +13°C° 0.1 mm 6 mps 733 mmHg 58%
    13:00 +14°C° 0.1 mm 6 mps 733 mmHg 55%
    14:00 +14°C° 0.1 mm 6 mps 734 mmHg 53%
    15:00 +14°C° 0.1 mm 6 mps 734 mmHg 56%
    16:00 +13°C° 0.1 mm 5 mps 735 mmHg 59%
    17:00 +13°C° 0.1 mm 4 mps 735 mmHg 63%
    18:00 +12°C° 0.1 mm 4 mps 736 mmHg 69%
    19:00 +11°C° 0.1 mm 3 mps 736 mmHg 76%
    20:00 +10°C° 0.1 mm 3 mps 737 mmHg 83%
    21:00 +9°C° 0 mm 3 mps 737 mmHg 86%
    22:00 +8°C° 0 mm 3 mps 738 mmHg 89%
    23:00 +8°C° 0 mm 2 mps 738 mmHg 92%

    28 May, Tuesday

    Time Temperature Precipitation Wind Pressure Humidity
    00:00 +7°C° 0 mm 2 mps 738 mmHg 94%
    01:00 +7°C° 0 mm 2 mps 739 mmHg 95%
    02:00 +6°C° 0 mm 2 mps 739 mmHg 96%
    03:00 +7°C° 0 mm 2 mps 739 mmHg 93%
    04:00 +7°C° 0 mm 2 mps 740 mmHg 90%
    05:00 +8°C° 0 mm 2 mps 740 mmHg 87%
    06:00 +10°C° 0 mm 2 mps 740 mmHg 78%
    07:00 +13°C° 0 mm 2 mps 740 mmHg 70%
    08:00 +15°C° 0 mm 2 mps 740 mmHg 61%
    09:00 +17°C° 0 mm 2 mps 740 mmHg 58%
    10:00 +19°C° 0 mm 2 mps 740 mmHg 54%
    11:00 +20°C° 0 mm 3 mps 740 mmHg 51%
    12:00 +21°C° 0 mm 3 mps 740 mmHg 52%
    13:00 +21°C° 0 mm 3 mps 740 mmHg 53%
    14:00 +21°C° 0 mm 3 mps 740 mmHg 54%
    15:00 +20°C° 0 mm 3 mps 740 mmHg 62%
    16:00 +19°C° 0 mm 3 mps 740 mmHg 69%
    17:00 +18°C° 0 mm 2 mps 739 mmHg 77%
    18:00 +17°C° 0 mm 3 mps 739 mmHg 80%
    19:00 +16°C° 0 mm 3 mps 739 mmHg 83%
    20:00 +16°C° 0 mm 3 mps 739 mmHg 86%
    21:00 +16°C° 0.2 mm 3 mps 738 mmHg 89%
    22:00 +16°C° 0.2 mm 3 mps 738 mmHg 92%
    23:00 +14°C° 0.2 mm 4 mps 737 mmHg 94%
    Show more